Total_Precipitation_Accumulation
0.11 0.13 0.17 0.16 0.16 0.18 0.21 0.20 0.20 0.19 0.18 0.17 0.17 0.16 0.18 0.22 0.16 0.09 0.06 0.06 0.04 0.05 0.04 0.01 0.02 0.04 0.24 0.34 0.63 0.95 0.71 0.17 0.05 0.02 0.02 0.06 0.04 0.02 0.00 0.00 0.00 0.00 0.00 0.07 0.23
0.10 0.13 0.17 0.16 0.17 0.19 0.20 0.18 0.16 0.17 0.17 0.20 0.23 0.26 0.33 0.31 0.09 0.06 0.10 0.12 0.08 0.11 0.02 0.02 0.02 0.06 0.17 0.27 0.63 0.99 0.49 0.11 0.02 0.03 0.03 0.10 0.07 0.06 0.04 0.00 0.00 0.01 0.03 0.18 0.19
0.12 0.14 0.14 0.16 0.18 0.18 0.17 0.18 0.17 0.17 0.16 0.20 0.26 0.38 0.51 0.22 0.05 0.07 0.11 0.07 0.14 0.07 0.02 0.01 0.04 0.16 0.17 0.24 0.39 0.48 0.31 0.07 0.03 0.06 0.17 0.20 0.27 0.11 0.06 0.01 0.01 0.06 0.15 0.17 0.20
0.17 0.18 0.15 0.16 0.20 0.19 0.18 0.16 0.18 0.19 0.22 0.22 0.31 0.47 0.39 0.19 0.07 0.03 0.12 0.07 0.06 0.03 0.04 0.04 0.11 0.21 0.15 0.15 0.16 0.31 0.09 0.14 0.08 0.09 0.19 0.33 0.43 0.26 0.09 0.02 0.00 0.11 0.28 0.25 0.19
0.19 0.21 0.24 0.24 0.22 0.21 0.17 0.16 0.17 0.21 0.22 0.22 0.35 0.52 0.39 0.19 0.05 0.00 0.00 0.02 0.03 0.05 0.07 0.08 0.13 0.18 0.20 0.08 0.17 0.24 0.12 0.18 0.19 0.23 0.25 0.34 0.37 0.49 0.24 0.04 0.00 0.08 0.22 0.25 0.31
0.24 0.27 0.28 0.31 0.33 0.28 0.21 0.22 0.25 0.26 0.21 0.21 0.43 0.51 0.42 0.18 0.00 0.00 0.00 0.00 0.01 0.05 0.14 0.17 0.15 0.17 0.21 0.07 0.16 0.14 0.12 0.16 0.22 0.38 0.40 0.50 0.40 0.45 0.38 0.16 0.02 0.02 0.13 0.20 0.27
0.26 0.30 0.39 0.37 0.27 0.27 0.35 0.37 0.32 0.25 0.26 0.35 0.50 0.48 0.41 0.08 0.00 0.00 0.01 0.04 0.04 0.07 0.07 0.19 0.28 0.37 0.30 0.17 0.06 0.13 0.26 0.28 0.19 0.34 0.49 0.66 0.62 0.47 0.28 0.53 0.17 0.02 0.07 0.16 0.25
0.29 0.30 0.32 0.31 0.41 0.43 0.35 0.30 0.39 0.42 0.42 0.41 0.36 0.52 0.35 0.00 0.00 0.00 0.00 0.03 0.08 0.13 0.15 0.21 0.42 0.39 0.34 0.29 0.15 0.25 0.45 0.33 0.05 0.26 0.59 1.20 0.96 0.11 0.17 0.59 0.43 0.06 0.09 0.14 0.14
0.38 0.35 0.34 0.35 0.37 0.44 0.44 0.45 0.41 0.38 0.44 0.43 0.46 0.56 0.21 0.00 0.00 0.00 0.00 0.00 0.05 0.16 0.21 0.31 0.52 0.52 0.45 0.47 0.47 0.43 0.32 0.09 0.03 0.09 0.51 1.02 0.68 0.09 0.10 0.44 0.58 0.22 0.08 0.21 0.15
0.45 0.44 0.42 0.41 0.49 0.66 0.71 0.61 0.46 0.44 0.32 0.45 0.75 0.93 0.18 0.00 0.00 0.00 0.00 0.00 0.02 0.17 0.39 0.41 0.59 0.69 0.68 0.82 0.54 0.20 0.16 0.07 0.07 0.07 0.35 0.46 0.41 0.15 0.13 0.24 0.56 0.41 0.09 0.18 0.25
0.48 0.53 0.54 0.61 0.63 0.87 1.04 0.93 0.96 0.84 0.72 0.36 0.31 0.26 0.06 0.03 0.05 0.02 0.01 0.02 0.05 0.20 0.19 0.30 0.56 0.57 0.34 0.38 0.15 0.13 0.20 0.17 0.02 0.02 0.30 0.30 0.22 0.17 0.18 0.22 0.43 0.55 0.25 0.18 0.35
0.61 0.64 0.80 0.89 0.85 0.90 0.95 0.80 0.66 1.04 0.68 0.18 0.12 0.10 0.05 0.04 0.12 0.09 0.11 0.17 0.11 0.09 0.14 0.43 0.39 0.04 0.07 0.25 0.36 0.26 0.22 0.11 0.10 0.04 0.20 0.20 0.12 0.08 0.25 0.19 0.28 0.61 0.63 0.35 0.35
0.79 0.83 0.96 1.06 1.16 0.96 0.70 0.56 0.52 0.80 1.19 0.27 0.07 0.05 0.01 0.08 0.11 0.11 0.16 0.33 0.16 0.11 0.13 0.19 0.12 0.04 0.09 0.35 0.59 0.46 0.32 0.12 0.08 0.07 0.13 0.13 0.19 0.23 0.15 0.16 0.18 0.49 0.76 0.88 0.61
0.94 1.06 1.22 1.33 1.38 0.86 0.83 0.77 0.76 1.35 2.25 0.47 0.04 0.06 0.01 0.09 0.16 0.06 0.13 0.39 0.56 0.13 0.14 0.22 0.06 0.14 0.17 0.21 0.43 0.53 0.20 0.19 0.16 0.45 0.47 0.16 0.21 0.03 0.11 0.12 0.10 0.21 0.43 1.06 0.54
1.30 1.30 1.47 1.76 1.16 0.99 0.82 0.91 1.39 2.29 3.18 0.37 0.07 0.04 0.03 0.14 0.10 0.07 0.18 0.52 0.66 0.45 0.28 0.18 0.04 0.24 0.31 0.16 0.23 0.36 0.21 0.23 0.33 0.70 0.64 0.28 0.39 0.05 0.01 0.03 0.07 0.03 0.08 0.53 0.73
1.26 1.70 1.59 1.41 1.30 0.75 0.79 1.57 2.46 3.66 2.84 0.34 0.16 0.11 0.14 0.11 0.04 0.24 0.47 0.72 0.78 0.82 0.65 0.19 0.06 0.14 0.18 0.09 0.16 0.31 0.65 0.56 0.84 1.17 2.05 0.55 0.28 0.10 0.00 0.00 0.00 0.00 0.00 0.10 0.55
1.71 1.90 2.02 1.50 1.32 1.09 1.74 3.12 4.17 3.27 0.76 0.36 0.20 0.21 0.24 0.22 0.16 0.29 1.11 1.24 1.04 1.47 1.23 0.53 0.16 0.03 0.18 0.29 0.48 0.90 1.33 2.36 2.45 2.61 1.85 0.26 0.35 0.13 0.00 0.00 0.00 0.00 0.00 0.01 0.19
1.94 2.05 1.53 1.34 1.17 1.88 3.01 4.14 4.51 1.01 0.29 0.23 0.19 0.26 0.35 0.40 0.35 0.19 0.50 0.93 0.95 1.02 1.32 0.73 0.39 0.10 0.17 0.22 0.46 0.93 1.31 1.80 1.40 1.00 0.40 0.17 0.44 0.01 0.00 0.00 0.00 0.00 0.00 0.00 0.04
2.11 1.85 1.77 1.25 1.10 2.18 3.87 4.80 2.13 0.50 0.27 0.23 0.20 0.41 0.43 0.66 0.90 0.61 0.31 0.55 0.94 1.26 1.68 1.33 0.34 0.08 0.04 0.04 0.20 0.61 1.13 0.82 0.80 0.39 0.33 0.18 0.05 0.00 0.00 0.00 0.00 0.00 0.00 0.00 0.01
2.30 2.07 2.00 1.47 1.90 2.87 4.17 3.03 0.77 0.21 0.30 0.30 0.50 0.45 0.58 0.59 1.01 1.21 0.82 0.60 0.73 0.97 1.51 1.63 1.24 0.18 0.22 0.26 0.24 0.40 0.49 0.86 1.57 1.53 0.53 0.11 0.02 0.01 0.00 0.00 0.00 0.00 0.00 0.00 0.00
2.66 2.76 1.78 1.91 2.98 4.09 4.01 1.35 0.26 0.09 0.28 0.60 0.46 0.49 0.45 0.76 0.95 1.17 1.36 0.64 0.66 0.62 0.96 1.96 1.84 0.78 0.46 0.49 0.31 0.48 1.06 0.89 1.21 0.90 0.62 0.27 0.04 0.01 0.02 0.01 0.00 0.00 0.00 0.00 0.00
3.18 2.87 1.78 2.29 4.01 3.91 1.75 0.48 0.19 0.11 0.24 0.41 0.50 0.36 0.30 0.37 1.06 1.22 0.89 0.97 0.65 0.60 0.78 1.15 2.13 1.33 0.50 0.35 0.30 0.28 0.72 0.92 1.13 1.00 0.59 0.49 0.19 0.01 0.02 0.01 0.00 0.00 0.00 0.00 0.01
3.59 2.37 2.59 2.64 3.18 2.07 0.83 0.33 0.30 0.19 0.28 0.44 0.34 0.37 0.28 0.33 1.04 0.76 0.79 0.57 0.71 0.80 1.20 1.27 2.07 1.91 1.42 1.26 0.67 0.65 0.37 0.56 0.59 0.54 0.53 0.60 0.20 0.03 0.06 0.03 0.01 0.01 0.00 0.02 0.02
4.07 3.13 3.51 3.96 2.18 0.99 0.80 0.58 0.45 0.22 0.24 0.32 0.30 0.39 0.58 0.42 0.55 0.63 0.53 0.45 0.45 0.83 1.08 1.24 1.47 1.25 1.00 1.36 1.31 1.09 0.81 0.49 0.63 0.64 0.37 0.31 0.09 0.09 0.10 0.06 0.03 0.02 0.02 0.09 0.11
3.92 2.65 2.03 2.52 1.80 0.96 1.22 1.01 0.34 0.33 0.43 0.54 0.46 0.31 0.58 0.90 0.62 0.55 0.48 0.58 0.58 0.77 1.06 1.67 1.44 0.77 0.22 0.13 0.38 0.47 0.69 0.64 0.71 0.46 0.43 0.17 0.14 0.04 0.11 0.07 0.05 0.06 0.04 0.07 0.12
3.17 1.69 1.64 1.09 0.64 1.10 1.53 1.08 0.29 0.37 0.53 0.43 0.47 0.19 0.32 0.53 0.61 0.73 0.90 0.90 1.00 1.02 1.51 1.77 1.53 0.61 0.38 0.10 0.18 0.23 0.34 0.49 0.60 0.31 0.13 0.11 0.15 0.07 0.05 0.09 0.14 0.12 0.08 0.07 0.06
2.22 1.28 1.91 1.83 1.08 1.40 1.30 0.79 0.67 0.67 0.48 0.14 0.17 0.49 0.39 0.26 0.26 0.62 0.86 0.90 0.97 1.13 1.39 1.59 1.38 0.78 0.77 0.34 0.71 0.82 0.62 0.44 0.43 0.42 0.21 0.20 0.16 0.06 0.05 0.14 0.41 0.22 0.10 0.07 0.04